DW2458 Weather Reports


time (UTC)temp
C
wind
direction
speed
KPH
gust
KPH
rain 1hr
cm
rain 24hr
cm
rain mn
cm
humidity
%
barometer
mb
20260505233056 16 232 0.0 4.8 0.00 0.00 0.00 69 1013.7
20260505231607 16 9 1.6 6.4 0.00 0.00 0.00 71 1013.8
20260505230056 16 256 0.0 4.8 0.00 0.00 0.00 69 1013.8
20260505224555 16 261 0.0 12.9 0.00 0.00 0.00 69 1013.8
20260505223103 16 315 3.2 8.0 0.00 0.00 0.00 71 1014.0
20260505221558 16 32 0.0 6.4 0.00 0.00 0.00 70 1014.1
20260505220053 16 42 1.6 9.7 0.00 0.00 0.00 72 1014.1
20260505214613 16 31 3.2 8.0 0.00 0.00 0.00 72 1014.2
20260505213056 16 41 1.6 12.9 0.00 0.00 0.00 74 1014.3
20260505211549 16 51 0.0 1.6 0.00 0.00 0.00 71 1014.4
20260505210048 16 304 0.0 4.8 0.00 0.00 0.00 72 1014.2
20260505204548 16 17 3.2 9.7 0.00 0.00 0.00 74 1014.3
20260505203047 16 305 4.8 11.3 0.00 0.00 0.00 71 1014.4
20260505201546 16 309 0.0 9.7 0.00 0.00 0.00 71 1014.3
20260505200056 16 290 3.2 9.7 0.00 0.00 0.00 71 1014.5
20260505194545 16 9 3.2 8.0 0.00 0.00 0.00 72 1014.7
20260505193044 16 306 1.6 8.0 0.00 0.00 0.00 73 1014.8
20260505191546 16 291 0.0 4.8 0.00 0.00 0.00 75 1014.6
20260505190043 15 269 1.6 6.4 0.00 0.00 0.00 72 1014.5
20260505184535 15 21 4.8 9.7 0.00 0.00 0.00 75 1014.5
20260505183049 14 324 0.0 4.8 0.00 0.00 0.00 75 1014.5
20260505181528 14 32 3.2 6.4 0.00 0.00 0.00 77 1014.6
20260505180027 14 344 0.0 9.7 0.00 0.00 0.00 77 1014.4
20260505174527 14 350 4.8 11.3 0.00 0.00 0.00 74 1014.4
20260505173024 14 48 0.0 6.4 0.00 0.00 0.00 76 1014.2
20260505171522 14 28 0.0 0.0 0.00 0.00 0.00 74 1014.0
20260505170023 13 81 0.0 0.0 0.00 0.00 0.00 78 1014.0
20260505164520 13 113 0.0 3.2 0.00 0.00 0.00 76 1014.0
20260505163020 13 67 0.0 3.2 0.00 0.00 0.00 77 1013.9
20260505161518 13 195 0.0 0.0 0.00 0.00 0.00 74 1014.0
20260505153009 13 132 0.0 0.0 0.00 0.00 0.00 79 1013.8
20260505151507 12 136 0.0 3.2 0.00 0.00 0.00 82 1013.6
20260505140114 11 231 0.0 0.0 0.00 0.00 0.00 84 1013.3
20260505124553 11 247 0.0 0.0 0.00 0.00 0.00 85 1013.0
20260505123054 11 355 0.0 0.0 0.00 0.00 0.00 86 1013.1
20260505121550 11 355 0.0 0.0 0.00 0.00 0.00 85 1013.1
20260505120053 11 355 0.0 0.0 0.00 0.00 0.00 86 1013.2
20260505114557 11 355 0.0 0.0 0.00 0.00 0.00 85 1013.3
20260505113054 11 355 0.0 4.8 0.00 0.00 0.00 84 1013.5
20260505111545 11 319 0.0 0.0 0.00 0.00 0.00 84 1013.2
20260505101549 12 300 1.6 6.4 0.00 0.00 0.00 77 1013.1
20260505100038 12 305 1.6 4.8 0.00 0.00 0.00 78 1013.3
20260505094540 12 315 0.0 4.8 0.00 0.00 0.00 77 1013.3
20260505093034 12 325 1.6 9.7 0.00 0.00 0.00 75 1013.5
20260505091535 12 226 0.0 6.4 0.00 0.00 0.00 71 1013.4
20260505090030 12 319 1.6 8.0 0.00 0.00 0.00 70 1013.5
20260505084528 12 292 6.4 14.5 0.00 0.00 0.00 70 1013.7
20260505083026 12 324 4.8 12.9 0.00 0.00 0.00 70 1013.9
20260505081525 12 339 6.4 17.7 0.00 0.00 0.00 70 1013.9
20260505080026 12 340 11.3 17.7 0.00 0.00 0.00 70 1014.0
20260505074518 13 338 6.4 14.5 0.00 0.00 0.00 71 1013.9
20260505073013 13 321 8.0 14.5 0.00 0.00 0.00 72 1014.0
20260505071525 12 21 6.4 12.9 0.00 0.00 0.00 75 1013.7
20260505070008 13 315 4.8 11.3 0.00 0.00 0.00 77 1013.6
20260505064509 13 338 1.6 12.9 0.00 0.00 0.00 77 1013.7
20260505063007 13 335 3.2 8.0 0.00 0.00 0.00 78 1013.7
20260505061505 13 310 1.6 11.3 0.00 0.00 0.00 79 1013.4
20260505060016 13 295 6.4 9.7 0.00 0.00 0.00 78 1013.4
20260505054504 13 332 1.6 8.0 0.00 0.00 0.00 77 1013.6
20260505053003 13 335 3.2 12.9 0.00 0.00 0.00 76 1013.6
20260505051506 13 323 0.0 12.9 0.00 0.00 0.00 75 1013.9
20260505041603 14 322 3.2 9.7 0.00 0.00 0.00 73 1013.5
20260505040057 14 348 8.0 16.1 0.00 0.00 0.00 71 1013.2
20260505034556 15 345 4.8 14.5 0.00 0.00 0.00 70 1013.0
20260505033055 15 36 1.6 11.3 0.00 0.00 0.00 69 1012.8
20260505031557 15 304 3.2 12.9 0.00 0.00 0.00 67 1012.6
20260505030055 15 327 4.8 14.5 0.00 0.00 0.00 66 1012.7
20260505024603 15 297 4.8 12.9 0.00 0.00 0.00 65 1012.7
20260505023054 15 321 6.4 12.9 0.00 0.00 0.00 63 1012.6
20260505021553 16 336 11.3 17.7 0.00 0.00 0.00 61 1012.5
20260505020052 16 340 3.2 17.7 0.00 0.00 0.00 63 1012.5
20260505014552 16 9 9.7 20.9 0.00 0.00 0.00 63 1012.5
20260505013102 16 342 4.8 16.1 0.00 0.00 0.00 60 1012.5
20260505011551 17 355 9.7 17.7 0.00 0.00 0.00 61 1012.7
20260505010100 17 331 8.0 19.3 0.00 0.00 0.00 61 1012.8
20260505004550 17 309 6.4 22.5 0.00 0.00 0.00 63 1012.9
20260505003046 17 342 4.8 16.1 0.00 0.00 0.00 63 1012.9
20260505001546 17 299 3.2 17.7 0.00 0.00 0.00 63 1012.9
20260505000057 17 320 4.8 17.7 0.00 0.00 0.00 62 1012.8
20260504234547 17 347 8.0 14.5 0.00 0.00 0.00 61 1012.7